When you browse on this site, cookies collect data to enhance your experience and personalize the content and advertising you see.
Visit our Privacy Policy to learn more. By continuing to use the site, you agree to this use of cookies and data.
  • In Sweden
  • List of Countries
  • For 7 days
  • Water Temperature
  • Weather Map
  • Weather Widgets
  • user-avatar
    Login

    Hourly Weather Workington

    Today, 22 September, Sunday

    Time Temperature Precipitation Wind Pressure Humidity
    00:00 +14°C° 0 mm 5 mps 753 mmHg 77%
    01:00 +14°C° 0.1 mm 5 mps 752 mmHg 78%
    02:00 +14°C° 0.1 mm 5 mps 752 mmHg 79%
    03:00 +15°C° 0.1 mm 5 mps 751 mmHg 80%
    04:00 +15°C° 0.1 mm 5 mps 751 mmHg 82%
    05:00 +15°C° 0.1 mm 5 mps 751 mmHg 83%
    06:00 +15°C° 0.1 mm 5 mps 751 mmHg 85%
    07:00 +15°C° 0.2 mm 5 mps 751 mmHg 87%
    08:00 +17°C° 0.2 mm 4 mps 750 mmHg 88%
    09:00 +18°C° 0.2 mm 4 mps 750 mmHg 90%
    10:00 +18°C° 0.5 mm 4 mps 750 mmHg 91%
    11:00 +18°C° 0.5 mm 4 mps 750 mmHg 91%
    12:00 +19°C° 0.5 mm 4 mps 750 mmHg 91%
    13:00 +18°C° 0.4 mm 4 mps 750 mmHg 92%
    14:00 +17°C° 0.4 mm 3 mps 750 mmHg 94%
    15:00 +16°C° 0.4 mm 2 mps 750 mmHg 95%
    16:00 +16°C° 0.2 mm 2 mps 750 mmHg 95%
    17:00 +16°C° 0.2 mm 1 mps 751 mmHg 95%
    18:00 +15°C° 0.2 mm 1 mps 751 mmHg 95%
    19:00 +15°C° 0.4 mm 1 mps 751 mmHg 95%
    20:00 +15°C° 0.4 mm 2 mps 751 mmHg 95%
    21:00 +15°C° 0.4 mm 2 mps 752 mmHg 95%
    22:00 +14°C° 0.3 mm 3 mps 752 mmHg 94%
    23:00 +14°C° 0.3 mm 3 mps 752 mmHg 94%

    Tomorrow, 23 September, Monday

    Time Temperature Precipitation Wind Pressure Humidity
    00:00 +13°C° 0.3 mm 3 mps 752 mmHg 93%
    01:00 +13°C° 0 mm 3 mps 752 mmHg 94%
    02:00 +13°C° 0 mm 3 mps 752 mmHg 94%
    03:00 +12°C° 0 mm 4 mps 753 mmHg 95%
    04:00 +13°C° 0 mm 4 mps 753 mmHg 95%
    05:00 +13°C° 0 mm 4 mps 753 mmHg 95%
    06:00 +13°C° 0 mm 4 mps 753 mmHg 96%
    07:00 +13°C° 0 mm 4 mps 753 mmHg 93%
    08:00 +14°C° 0 mm 4 mps 753 mmHg 90%
    09:00 +14°C° 0 mm 4 mps 753 mmHg 88%
    10:00 +15°C° 0 mm 5 mps 753 mmHg 84%
    11:00 +15°C° 0 mm 5 mps 753 mmHg 80%
    12:00 +16°C° 0 mm 6 mps 754 mmHg 76%
    13:00 +16°C° 0 mm 5 mps 753 mmHg 75%
    14:00 +16°C° 0 mm 5 mps 753 mmHg 74%
    15:00 +16°C° 0 mm 5 mps 752 mmHg 72%
    16:00 +16°C° 0.1 mm 6 mps 752 mmHg 76%
    17:00 +15°C° 0.1 mm 6 mps 751 mmHg 81%
    18:00 +14°C° 0.1 mm 7 mps 751 mmHg 85%
    19:00 +14°C° 0.2 mm 7 mps 751 mmHg 86%
    20:00 +14°C° 0.2 mm 7 mps 750 mmHg 88%
    21:00 +12°C° 0.2 mm 7 mps 750 mmHg 90%
    22:00 +12°C° 0.5 mm 7 mps 749 mmHg 91%
    23:00 +13°C° 0.5 mm 6 mps 749 mmHg 93%

    Day after tomorrow, 24 September, Tuesday

    Time Temperature Precipitation Wind Pressure Humidity
    00:00 +13°C° 0.5 mm 6 mps 748 mmHg 94%
    01:00 +14°C° 0.3 mm 5 mps 748 mmHg 94%
    02:00 +14°C° 0.3 mm 5 mps 747 mmHg 95%
    03:00 +14°C° 0.3 mm 4 mps 747 mmHg 96%
    04:00 +14°C° 0.2 mm 4 mps 747 mmHg 96%
    05:00 +14°C° 0.2 mm 4 mps 746 mmHg 95%
    06:00 +14°C° 0.2 mm 4 mps 746 mmHg 95%
    07:00 +14°C° 0.5 mm 3 mps 746 mmHg 96%
    08:00 +14°C° 0.5 mm 3 mps 746 mmHg 96%
    09:00 +16°C° 0.5 mm 2 mps 746 mmHg 96%
    10:00 +16°C° 1.1 mm 3 mps 746 mmHg 96%
    11:00 +16°C° 1.1 mm 3 mps 746 mmHg 96%
    12:00 +16°C° 1.1 mm 3 mps 746 mmHg 96%
    13:00 +16°C° 0.2 mm 3 mps 745 mmHg 94%
    14:00 +16°C° 0.2 mm 3 mps 745 mmHg 92%
    15:00 +16°C° 0.2 mm 3 mps 745 mmHg 90%
    16:00 +16°C° 0 mm 3 mps 746 mmHg 91%
    17:00 +14°C° 0 mm 3 mps 746 mmHg 92%
    18:00 +14°C° 0 mm 3 mps 746 mmHg 93%
    19:00 +13°C° 0 mm 3 mps 746 mmHg 94%
    20:00 +13°C° 0 mm 4 mps 746 mmHg 94%
    21:00 +13°C° 0 mm 5 mps 747 mmHg 94%
    22:00 +13°C° 0 mm 5 mps 747 mmHg 94%
    23:00 +13°C° 0 mm 6 mps 747 mmHg 94%

    25 September, Wednesday

    Time Temperature Precipitation Wind Pressure Humidity
    00:00 +11°C° 0 mm 6 mps 747 mmHg 93%
    01:00 +12°C° 0 mm 5 mps 747 mmHg 93%
    02:00 +12°C° 0 mm 5 mps 747 mmHg 93%
    03:00 +12°C° 0 mm 4 mps 747 mmHg 93%
    04:00 +12°C° 0 mm 4 mps 746 mmHg 93%
    05:00 +12°C° 0 mm 4 mps 746 mmHg 92%
    06:00 +12°C° 0 mm 4 mps 746 mmHg 92%
    07:00 +13°C° 0 mm 3 mps 746 mmHg 89%
    08:00 +13°C° 0 mm 3 mps 746 mmHg 87%
    09:00 +15°C° 0 mm 2 mps 746 mmHg 84%
    10:00 +14°C° 0 mm 3 mps 746 mmHg 81%
    11:00 +16°C° 0 mm 3 mps 746 mmHg 78%
    12:00 +17°C° 0 mm 3 mps 746 mmHg 75%
    13:00 +17°C° 0 mm 4 mps 745 mmHg 79%
    14:00 +15°C° 0 mm 4 mps 745 mmHg 83%
    15:00 +15°C° 0 mm 4 mps 744 mmHg 86%
    16:00 +15°C° 0.1 mm 4 mps 744 mmHg 89%
    17:00 +15°C° 0.1 mm 4 mps 744 mmHg 92%
    18:00 +14°C° 0.1 mm 4 mps 743 mmHg 95%
    19:00 +14°C° 0.6 mm 4 mps 743 mmHg 95%
    20:00 +14°C° 0.6 mm 5 mps 743 mmHg 96%
    21:00 +15°C° 0.6 mm 6 mps 742 mmHg 97%
    22:00 +15°C° 1 mm 6 mps 742 mmHg 97%
    23:00 +15°C° 1 mm 7 mps 742 mmHg 97%

    26 September, Thursday

    Time Temperature Precipitation Wind Pressure Humidity
    00:00 +15°C° 1 mm 8 mps 741 mmHg 97%
    01:00 +15°C° 0.9 mm 8 mps 741 mmHg 96%
    02:00 +15°C° 0.9 mm 8 mps 740 mmHg 95%
    03:00 +15°C° 0.9 mm 8 mps 740 mmHg 93%
    04:00 +15°C° 0.7 mm 8 mps 740 mmHg 93%
    05:00 +13°C° 0.7 mm 9 mps 740 mmHg 93%
    06:00 +13°C° 0.7 mm 9 mps 739 mmHg 93%
    07:00 +13°C° 0.6 mm 9 mps 740 mmHg 92%
    08:00 +13°C° 0.6 mm 9 mps 740 mmHg 90%
    09:00 +13°C° 0.6 mm 9 mps 740 mmHg 89%
    10:00 +13°C° 0.2 mm 9 mps 741 mmHg 86%
    11:00 +13°C° 0.2 mm 9 mps 741 mmHg 84%
    12:00 +13°C° 0.2 mm 9 mps 741 mmHg 81%
    13:00 +13°C° 0.2 mm 9 mps 741 mmHg 81%
    14:00 +13°C° 0.2 mm 9 mps 741 mmHg 80%
    15:00 +13°C° 0.2 mm 9 mps 742 mmHg 80%
    16:00 +13°C° 0.4 mm 9 mps 742 mmHg 83%
    17:00 +12°C° 0.4 mm 9 mps 742 mmHg 86%
    18:00 +12°C° 0.4 mm 9 mps 742 mmHg 88%
    19:00 +12°C° 0.3 mm 9 mps 742 mmHg 89%
    20:00 +12°C° 0.3 mm 9 mps 742 mmHg 89%
    21:00 +11°C° 0.3 mm 9 mps 742 mmHg 89%
    22:00 +12°C° 0.5 mm 9 mps 742 mmHg 90%
    23:00 +12°C° 0.5 mm 9 mps 742 mmHg 90%

    27 September, Friday

    Time Temperature Precipitation Wind Pressure Humidity
    00:00 +12°C° 0.5 mm 9 mps 742 mmHg 91%
    01:00 +12°C° 0.5 mm 8 mps 742 mmHg 91%
    02:00 +12°C° 0.5 mm 7 mps 741 mmHg 91%
    03:00 +12°C° 0.5 mm 7 mps 741 mmHg 91%
    04:00 +12°C° 0.6 mm 7 mps 741 mmHg 92%
    05:00 +12°C° 0.6 mm 7 mps 741 mmHg 92%
    06:00 +12°C° 0.6 mm 8 mps 741 mmHg 92%
    07:00 +12°C° 0.6 mm 8 mps 741 mmHg 91%
    08:00 +12°C° 0.6 mm 8 mps 741 mmHg 91%
    09:00 +13°C° 0.6 mm 8 mps 741 mmHg 90%
    10:00 +13°C° 0.6 mm 8 mps 741 mmHg 90%
    11:00 +13°C° 0.6 mm 8 mps 741 mmHg 90%
    12:00 +13°C° 0.6 mm 8 mps 741 mmHg 90%
    13:00 +14°C° 0.5 mm 7 mps 741 mmHg 89%
    14:00 +15°C° 0.5 mm 7 mps 741 mmHg 87%
    15:00 +15°C° 0.5 mm 6 mps 741 mmHg 86%
    16:00 +14°C° 0.4 mm 6 mps 741 mmHg 88%
    17:00 +14°C° 0.4 mm 6 mps 741 mmHg 90%
    18:00 +13°C° 0.4 mm 6 mps 741 mmHg 92%
    19:00 +13°C° 0.4 mm 6 mps 741 mmHg 93%
    20:00 +12°C° 0.4 mm 5 mps 742 mmHg 93%
    21:00 +12°C° 0.4 mm 5 mps 742 mmHg 94%
    22:00 +11°C° 0.6 mm 6 mps 742 mmHg 94%
    23:00 +13°C° 0.6 mm 6 mps 742 mmHg 94%
    Show more